ELY317 LLBG-EGLL

Flight info

Callsign ELY317
Flight time N/A
Altitude 40000
Route SUVAS N128 TEZAK L324 SAFTA DCT TOMBI UA16 AYT UN135 IMR UN127 RIKSO DCT DISOR DCT LONTA UL608 DOLEV DCT GORPA DCT MODSA DCT MAH DCT NOMBO DCT VIBOM DCT ULNOK DCT ADENU L608 LIRSU DCT ARCKY DCT SPI DCT DENUT L608 LOGAN
Aircraft B772/H-SDE2E3FGHIJ5LORVWXY/LB1D1

Departure

Time 2026-05-04 11:05
Airport Ben Gurion International Airport (LLBG)

Arrival

Time N/A
Airport London Heathrow Airport (EGLL)
Time Latitude Longitude Altitude Speed Heading
2026-05-04 10:47 32.00116 34.87502 119 ft 0 kts 301°
2026-05-04 10:54 32.00115 34.87503 124 ft 2 kts 301°
2026-05-04 10:54 32.00107 34.87528 122 ft 4 kts 295°
2026-05-04 10:56 32.00096 34.87568 119 ft 0 kts 32°
2026-05-04 10:58 32.00172 34.87622 119 ft 18 kts 30°
2026-05-04 10:58 32.00301 34.87713 121 ft 29 kts 31°
2026-05-04 10:59 32.00475 34.87840 120 ft 29 kts 31°
2026-05-04 10:59 32.00649 34.87961 120 ft 29 kts 30°
2026-05-04 10:59 32.00864 34.88119 121 ft 46 kts 32°
2026-05-04 10:59 32.01130 34.88308 120 ft 42 kts 31°
2026-05-04 11:00 32.01350 34.88509 120 ft 39 kts 49°
2026-05-04 11:01 32.01824 34.89605 122 ft 26 kts 260°
2026-05-04 11:02 32.01746 34.89101 119 ft 97 kts 259°
2026-05-04 11:02 32.01592 34.88083 196 ft 149 kts 260°
2026-05-04 11:05 32.01846 34.66217 8232 ft 254 kts 287°
2026-05-04 11:06 32.02454 34.64254 8963 ft 256 kts 286°
2026-05-04 11:06 32.02819 34.62217 9567 ft 257 kts 273°
2026-05-04 11:06 32.02912 34.60101 10222 ft 260 kts 271°
2026-05-04 11:06 32.02990 34.57901 10495 ft 280 kts 272°
2026-05-04 11:08 32.06198 34.40716 15305 ft 337 kts 284°
2026-05-04 11:10 32.11099 34.21957 21504 ft 353 kts 282°
2026-05-04 11:12 32.16332 34.02043 26248 ft 374 kts 287°
2026-05-04 11:12 32.17449 33.99239 26760 ft 380 kts 290°
2026-05-04 11:12 32.18708 33.96458 27268 ft 386 kts 292°
2026-05-04 11:12 32.20171 33.93771 27804 ft 392 kts 297°
2026-05-04 11:13 32.21750 33.91142 28328 ft 394 kts 297°
2026-05-04 11:13 32.23353 33.88505 28801 ft 396 kts 297°
2026-05-04 11:13 32.24965 33.85856 29230 ft 399 kts 297°
2026-05-04 11:13 32.26588 33.83181 29658 ft 402 kts 297°
2026-05-04 11:14 32.27137 33.82275 29772 ft 402 kts 297°
2026-05-04 11:14 32.30408 33.76858 30405 ft 407 kts 297°
2026-05-04 11:16 32.43046 33.55778 32775 ft 409 kts 297°
2026-05-04 11:16 32.44669 33.53060 33106 ft 409 kts 297°
2026-05-04 11:16 32.46309 33.50306 33429 ft 409 kts 297°
2026-05-04 11:17 32.47943 33.47557 33750 ft 409 kts 297°
2026-05-04 11:17 32.49578 33.44808 34060 ft 409 kts 297°
2026-05-04 11:19 32.64144 33.28070 35797 ft 441 kts 319°
2026-05-04 11:19 32.66807 33.26250 36098 ft 442 kts 320°
2026-05-04 11:19 32.69494 33.24437 36323 ft 444 kts 320°
2026-05-04 11:19 32.72176 33.22624 36543 ft 444 kts 320°
2026-05-04 11:20 32.74854 33.20802 36785 ft 444 kts 320°
2026-05-04 11:20 32.77531 33.18968 37022 ft 444 kts 320°
2026-05-04 11:20 32.80206 33.17124 37251 ft 445 kts 320°
2026-05-04 11:20 32.82878 33.15275 37490 ft 445 kts 320°
2026-05-04 11:22 33.01659 33.02214 38834 ft 450 kts 320°
2026-05-04 11:22 33.04363 33.00331 39030 ft 450 kts 320°
2026-05-04 11:23 33.07068 32.98446 39195 ft 450 kts 320°
2026-05-04 11:23 33.09768 32.96563 39349 ft 450 kts 320°
2026-05-04 11:24 33.26034 32.85177 39976 ft 456 kts 321°
2026-05-04 11:25 33.28773 32.83255 39966 ft 457 kts 321°
2026-05-04 11:25 33.34259 32.79404 39966 ft 457 kts 321°
2026-05-04 11:27 33.58876 32.62047 39960 ft 456 kts 321°
2026-05-04 11:28 33.64352 32.58169 39953 ft 456 kts 321°
2026-05-04 11:28 33.69817 32.54295 39947 ft 456 kts 321°
2026-05-04 11:29 33.75287 32.50411 39940 ft 456 kts 321°
2026-05-04 11:29 33.80751 32.46525 39939 ft 456 kts 321°
2026-05-04 11:33 34.18938 32.19185 39922 ft 458 kts 322°
2026-05-04 11:33 34.24379 32.15257 39921 ft 459 kts 322°
2026-05-04 11:34 34.29875 32.11302 39915 ft 459 kts 322°
2026-05-04 11:34 34.35362 32.07345 39931 ft 459 kts 322°
2026-05-04 11:35 34.40859 32.03369 39926 ft 461 kts 323°
2026-05-04 11:35 34.46367 31.99379 39917 ft 461 kts 323°
2026-05-04 11:36 34.51880 31.95380 39913 ft 462 kts 323°
2026-05-04 11:36 34.57358 31.91399 39904 ft 462 kts 323°
2026-05-04 11:37 34.62869 31.87389 39904 ft 462 kts 323°
2026-05-04 11:37 34.68382 31.83371 39910 ft 462 kts 323°
2026-05-04 11:38 34.73898 31.79344 39914 ft 461 kts 323°
2026-05-04 11:38 34.79400 31.75322 39898 ft 461 kts 323°
2026-05-04 11:39 34.84889 31.71303 39892 ft 460 kts 323°
2026-05-04 11:41 35.04002 31.57255 39892 ft 458 kts 323°
2026-05-04 11:41 35.09450 31.53237 39873 ft 457 kts 323°
2026-05-04 11:42 35.14859 31.49241 39874 ft 457 kts 323°
2026-05-04 11:42 35.20302 31.45214 39887 ft 458 kts 324°
2026-05-04 11:43 35.25761 31.41168 39881 ft 459 kts 324°
2026-05-04 11:43 35.31227 31.37111 39875 ft 460 kts 324°
2026-05-04 11:44 35.36699 31.33043 39875 ft 460 kts 324°
2026-05-04 11:44 35.42187 31.28957 39872 ft 461 kts 324°
2026-05-04 11:45 35.47639 31.24892 39887 ft 462 kts 324°
2026-05-04 11:45 35.53149 31.20774 39876 ft 463 kts 324°
2026-05-04 11:46 35.58659 31.16653 39873 ft 464 kts 324°
2026-05-04 11:46 35.64174 31.12520 39867 ft 464 kts 324°
2026-05-04 11:47 35.69688 31.08382 39866 ft 464 kts 324°
2026-05-04 11:47 35.75170 31.04268 39874 ft 464 kts 325°
2026-05-04 11:48 35.80697 31.00109 39867 ft 465 kts 325°
2026-05-04 11:48 35.86223 30.95938 39868 ft 466 kts 325°
2026-05-04 11:49 35.91746 30.91763 39864 ft 466 kts 325°
2026-05-04 11:49 35.97275 30.87578 39860 ft 466 kts 325°
2026-05-04 11:50 36.03007 30.83851 39865 ft 470 kts 338°
2026-05-04 11:50 36.09361 30.81816 39853 ft 469 kts 338°
2026-05-04 11:51 36.15108 30.78250 39870 ft 461 kts 322°
2026-05-04 11:51 36.20086 30.73297 39865 ft 459 kts 317°
2026-05-04 11:52 36.24953 30.68269 39857 ft 460 kts 317°
2026-05-04 11:52 36.29887 30.63188 39865 ft 461 kts 318°
2026-05-04 11:53 36.34852 30.58117 39856 ft 463 kts 318°
2026-05-04 11:53 36.39824 30.53038 39853 ft 463 kts 318°
2026-05-04 11:55 36.59686 30.32619 39855 ft 463 kts 318°
2026-05-04 11:56 36.63805 30.28366 39864 ft 463 kts 318°
2026-05-04 11:56 36.68781 30.23219 39899 ft 466 kts 318°
2026-05-04 11:57 36.73777 30.18041 39889 ft 471 kts 318°
2026-05-04 11:57 36.78827 30.12801 39899 ft 474 kts 318°
2026-05-04 11:58 36.83917 30.07509 39902 ft 477 kts 318°
2026-05-04 11:58 36.89024 30.02190 39939 ft 478 kts 319°
2026-05-04 11:59 36.94149 29.96844 39914 ft 480 kts 319°
2026-05-04 11:59 36.99247 29.91516 39914 ft 480 kts 319°
2026-05-04 12:00 37.04368 29.86154 39920 ft 479 kts 319°
2026-05-04 12:00 37.09478 29.80793 39923 ft 478 kts 319°
2026-05-04 12:01 37.14576 29.75430 39933 ft 477 kts 318°
2026-05-04 12:02 37.32279 29.56757 39945 ft 476 kts 318°
2026-05-04 12:03 37.37345 29.51384 39943 ft 476 kts 318°
2026-05-04 12:03 37.42380 29.45964 39954 ft 476 kts 314°
2026-05-04 12:04 37.46565 29.39546 39963 ft 474 kts 303°
2026-05-04 12:04 37.49674 29.32255 39976 ft 473 kts 295°
2026-05-04 12:05 37.52395 29.24696 39972 ft 475 kts 294°
2026-05-04 12:05 37.55120 29.17150 39977 ft 477 kts 295°
2026-05-04 12:06 37.57924 29.09480 39982 ft 479 kts 295°
2026-05-04 12:06 37.60707 29.01890 39974 ft 480 kts 295°
2026-05-04 12:07 37.63510 28.94222 39970 ft 481 kts 295°
2026-05-04 12:07 37.66307 28.86545 39986 ft 481 kts 295°
2026-05-04 12:08 37.69095 28.78869 39978 ft 481 kts 295°
2026-05-04 12:08 37.71885 28.71175 39980 ft 481 kts 295°
2026-05-04 12:09 37.74627 28.63511 39979 ft 481 kts 295°
2026-05-04 12:09 37.77354 28.55782 39981 ft 481 kts 295°
2026-05-04 12:10 37.80070 28.48052 39977 ft 481 kts 294°
2026-05-04 12:10 37.82785 28.40322 39989 ft 481 kts 295°
2026-05-04 12:11 37.85514 28.32580 39975 ft 481 kts 295°
2026-05-04 12:11 37.88226 28.24844 39990 ft 480 kts 294°
2026-05-04 12:12 37.90909 28.17160 39982 ft 480 kts 294°
2026-05-04 12:12 37.93606 28.09416 40003 ft 480 kts 294°
2026-05-04 12:14 38.04837 27.79004 40003 ft 475 kts 295°
2026-05-04 12:15 38.07439 27.71361 40006 ft 475 kts 294°
2026-05-04 12:15 38.10027 27.63646 40000 ft 475 kts 294°
2026-05-04 12:16 38.12681 27.55947 40001 ft 475 kts 294°
2026-05-04 12:16 38.15344 27.48254 40008 ft 476 kts 294°
2026-05-04 12:17 38.18006 27.40531 40011 ft 477 kts 294°
2026-05-04 12:17 38.20679 27.32794 40016 ft 479 kts 294°
2026-05-04 12:18 38.23361 27.25023 40015 ft 480 kts 294°
2026-05-04 12:18 38.26030 27.17277 40046 ft 481 kts 294°
2026-05-04 12:19 38.28712 27.09450 40053 ft 481 kts 294°
2026-05-04 12:19 38.31872 27.01967 40046 ft 481 kts 306°
2026-05-04 12:20 38.36231 26.95513 40043 ft 482 kts 317°
2026-05-04 12:20 38.41319 26.89913 40035 ft 483 kts 319°
2026-05-04 12:21 38.46439 26.84366 40041 ft 483 kts 319°
2026-05-04 12:21 38.51525 26.78758 40047 ft 482 kts 318°
2026-05-04 12:22 38.56506 26.73213 40051 ft 483 kts 318°
2026-05-04 12:22 38.61564 26.67579 40051 ft 483 kts 319°
2026-05-04 12:23 38.66631 26.61933 40055 ft 483 kts 319°
2026-05-04 12:23 38.71709 26.56267 40046 ft 484 kts 319°
2026-05-04 12:24 38.76360 26.51068 40063 ft 484 kts 318°
2026-05-04 12:24 38.81421 26.45393 40075 ft 484 kts 318°